Regional Weather Roundup
Issued by NWS

Home | Current Version | Previous Version | Graphics & Text | Print | Product List | Glossary On
Versions: 1 2 3 4 5 6 7 8 9 10 11 12 13 14 15 16 17 18 19 20 21 22 23 24 25 26 27 28 29 30 31 32 33 34 35 36 37 38 39 40 41 42 43 44 45 46 47 48 49 50
938
ASUS43 KBIS 300002
RWRND

NORTH DAKOTA REGIONAL WEATHER ROUNDUP
NATIONAL WEATHER SERVICE BISMARCK ND
700 PM CDT SUN MAY 29 2016

NOTE: "FAIR" INDICATES FEW OR NO CLOUDS BELOW 12,000 FEET WITH NO
SIGNIFICANT WEATHER AND/OR OBSTRUCTIONS TO VISIBILITY.


NDZ001>003-009>011-017-300100-
NORTHWEST NORTH DAKOTA

CITY           SKY/WX    TMP DP  RH WIND       PRES   REMARKS
WILLISTON      SUNNY     77  34  21 W9        29.92F
6HR MIN TEMP:  72; 6HR MAX TEMP:  79;

MINOT          SUNNY     77  38  24 W9        29.92F
$$

NDZ018>021-031>035-040>046-300100-
SOUTHWEST NORTH DAKOTA

CITY           SKY/WX    TMP DP  RH WIND       PRES   REMARKS
BISMARCK       MOSUNNY   77  44  30 NW8G18    29.93F
6HR MIN TEMP:  74; 6HR MAX TEMP:  80;

DICKINSON      SUNNY     74  31  20 NW9       29.93S
GARRISON         N/A     76  41  28 NW13      29.93F
6HR MIN TEMP:  71; 6HR MAX TEMP:  76;

HETTINGER ARPT PTSUNNY   74  46  36 SE5       29.97S
$$

NDZ004>008-012>016-024-026-027-054-300100-
NORTHEAST NORTH DAKOTA

CITY           SKY/WX    TMP DP  RH WIND       PRES   REMARKS
GRAND FORKS    MOSUNNY   75  49  39 NW13      29.89F
DEVILS LAKE    SUNNY     73  39  29 W13       29.93F
$$

NDZ022-023-025-028>030-036>039-047>053-300100-
SOUTHEAST NORTH DAKOTA

CITY           SKY/WX    TMP DP  RH WIND       PRES   REMARKS
FARGO          SUNNY     78  42  27 NW14      29.91F
6HR MIN TEMP:  68; 6HR MAX TEMP:  79; 6HR PCP:  0.01;

JAMESTOWN      SUNNY     74  43  32 NW13      29.94S
$$





USA.gov is the U.S. government's official web portal to all federal, state and local government web resources and services.